TimeCST,TemperatureF,Dew PointF,Humidity,Sea Level PressureIn,VisibilityMPH,Wind Direction,Wind SpeedMPH,Gust SpeedMPH,PrecipitationIn,Events,Conditions,WindDirDegrees,DateUTC
12:35 AM,32.0,28.4,87,29.87,10.0,North,11.5,17.3,N/A,,Overcast,360,2013-01-13 06:35:00
12:53 AM,32.0,28.9,88,29.90,10.0,North,10.4,-,N/A,,Overcast,350,2013-01-13 06:53:00
1:53 AM,30.9,28.0,89,29.92,10.0,North,11.5,-,N/A,,Overcast,350,2013-01-13 07:53:00
2:53 AM,30.9,28.0,89,29.95,10.0,North,13.8,17.3,N/A,,Overcast,10,2013-01-13 08:53:00
3:53 AM,30.9,28.0,89,29.97,10.0,NNW,10.4,18.4,N/A,,Overcast,340,2013-01-13 09:53:00
4:34 AM,30.2,26.6,86,29.96,10.0,North,10.4,-,N/A,,Overcast,350,2013-01-13 10:34:00
4:53 AM,28.9,27.0,92,29.98,9.0,NNW,13.8,-,N/A,,Overcast,340,2013-01-13 10:53:00
5:53 AM,28.0,25.0,88,30.04,7.0,NNW,11.5,-,N/A,,Overcast,340,2013-01-13 11:53:00
6:53 AM,27.0,25.0,92,30.08,7.0,NNW,10.4,18.4,N/A,,Overcast,330,2013-01-13 12:53:00
7:53 AM,26.1,23.0,88,30.04,7.0,North,13.8,19.6,N/A,,Overcast,360,2013-01-13 13:53:00
8:35 AM,24.8,21.2,86,30.03,8.0,NNW,12.7,-,N/A,,Overcast,340,2013-01-13 14:35:00
8:53 AM,26.1,23.0,88,30.07,9.0,NNW,10.4,-,N/A,,Overcast,340,2013-01-13 14:53:00
9:53 AM,25.0,21.0,85,30.15,10.0,NNW,9.2,18.4,0.00,,Overcast,330,2013-01-13 15:53:00
10:08 AM,24.8,21.2,86,30.10,10.0,NW,13.8,-,N/A,,Overcast,320,2013-01-13 16:08:00
10:53 AM,25.0,21.0,85,30.10,10.0,NNW,9.2,-,0.00,,Overcast,340,2013-01-13 16:53:00
11:30 AM,24.8,21.2,86,30.06,10.0,NNW,16.1,-,0.00,,Overcast,330,2013-01-13 17:30:00
11:51 AM,24.8,21.2,86,30.05,10.0,North,13.8,21.9,0.00,,Overcast,350,2013-01-13 17:51:00
11:53 AM,25.0,21.0,85,30.09,10.0,NNW,16.1,21.9,0.00,,Overcast,340,2013-01-13 17:53:00
12:41 PM,26.6,21.2,80,30.07,10.0,NW,16.1,20.7,N/A,,Overcast,320,2013-01-13 18:41:00
12:53 PM,26.1,21.0,81,30.11,10.0,NW,13.8,-,N/A,,Overcast,320,2013-01-13 18:53:00
1:03 PM,26.6,21.2,80,30.07,10.0,NW,11.5,-,N/A,,Overcast,310,2013-01-13 19:03:00
1:53 PM,27.0,21.0,78,30.14,10.0,NW,18.4,24.2,N/A,,Mostly Cloudy,320,2013-01-13 19:53:00
2:26 PM,28.4,23.0,80,30.12,10.0,WNW,12.7,23.0,N/A,,Overcast,300,2013-01-13 20:26:00
2:35 PM,28.4,21.2,74,30.13,10.0,NNW,13.8,23.0,N/A,,Mostly Cloudy,330,2013-01-13 20:35:00
2:53 PM,30.0,21.9,72,30.17,10.0,NW,15.0,21.9,N/A,,Mostly Cloudy,320,2013-01-13 20:53:00
3:37 PM,28.4,21.2,74,30.17,10.0,NNW,13.8,-,N/A,,Scattered Clouds,330,2013-01-13 21:37:00
3:53 PM,27.0,19.0,72,30.22,10.0,NW,13.8,23.0,N/A,,Clear,320,2013-01-13 21:53:00
4:53 PM,25.0,19.0,78,30.23,10.0,NNW,8.1,-,N/A,,Clear,340,2013-01-13 22:53:00
5:53 PM,23.0,17.1,78,30.25,10.0,NNW,5.8,-,N/A,,Clear,330,2013-01-13 23:53:00
6:53 PM,21.9,17.1,82,30.27,10.0,NNW,6.9,-,N/A,,Partly Cloudy,330,2013-01-14 00:53:00
7:53 PM,21.0,16.0,81,30.28,10.0,North,6.9,-,N/A,,Clear,350,2013-01-14 01:53:00
8:53 PM,19.9,16.0,85,30.29,10.0,North,8.1,-,N/A,,Clear,350,2013-01-14 02:53:00
9:53 PM,19.9,15.1,81,30.32,10.0,North,8.1,-,N/A,,Clear,360,2013-01-14 03:53:00
10:53 PM,19.0,14.0,81,30.34,10.0,North,4.6,-,N/A,,Clear,360,2013-01-14 04:53:00
11:53 PM,18.0,12.0,78,30.37,10.0,North,4.6,-,N/A,,Clear,360,2013-01-14 05:53:00